• In Belarus
  • List of Countries
  • For 7 days
  • Water Temperature
  • Weather Map
  • Weather Widgets
  • user-avatar
    Login

    Hourly Weather La Rioja

    Today, 25 January, Saturday

    Time Temperature Precipitation Wind Pressure Humidity
    00:00 +31°C° 0 mm 1 mps 713 mmHg 38%
    01:00 +30°C° 0 mm 1 mps 713 mmHg 40%
    02:00 +30°C° 0 mm 1 mps 712 mmHg 42%
    03:00 +29°C° 0 mm 1 mps 712 mmHg 42%
    04:00 +29°C° 0 mm 1 mps 712 mmHg 43%
    05:00 +28°C° 0 mm 1 mps 712 mmHg 44%
    06:00 +29°C° 0 mm 1 mps 713 mmHg 42%
    07:00 +30°C° 0 mm 2 mps 713 mmHg 40%
    08:00 +31°C° 0 mm 2 mps 714 mmHg 38%
    09:00 +32°C° 0 mm 2 mps 714 mmHg 36%
    10:00 +35°C° 0 mm 2 mps 714 mmHg 34%
    11:00 +36°C° 0 mm 2 mps 714 mmHg 32%
    12:00 +37°C° 0 mm 2 mps 713 mmHg 29%
    13:00 +38°C° 0 mm 2 mps 713 mmHg 27%
    14:00 +39°C° 0 mm 2 mps 712 mmHg 24%
    15:00 +39°C° 0 mm 2 mps 711 mmHg 23%
    16:00 +40°C° 0 mm 2 mps 711 mmHg 22%
    17:00 +40°C° 0 mm 2 mps 710 mmHg 21%
    18:00 +39°C° 0 mm 2 mps 711 mmHg 23%
    19:00 +38°C° 0 mm 2 mps 711 mmHg 25%
    20:00 +37°C° 0 mm 2 mps 711 mmHg 26%
    21:00 +36°C° 0 mm 2 mps 712 mmHg 29%
    22:00 +35°C° 0 mm 2 mps 712 mmHg 31%
    23:00 +33°C° 0 mm 1 mps 712 mmHg 33%

    Tomorrow, 26 January, Sunday

    Time Temperature Precipitation Wind Pressure Humidity
    00:00 +32°C° 0 mm 1 mps 712 mmHg 34%
    01:00 +31°C° 0 mm 1 mps 712 mmHg 36%
    02:00 +31°C° 0 mm 1 mps 711 mmHg 37%
    03:00 +30°C° 0 mm 1 mps 711 mmHg 39%
    04:00 +30°C° 0 mm 1 mps 711 mmHg 41%
    05:00 +28°C° 0 mm 0 mps 711 mmHg 43%
    06:00 +31°C° 0 mm 1 mps 711 mmHg 39%
    07:00 +32°C° 0 mm 1 mps 712 mmHg 35%
    08:00 +34°C° 0 mm 2 mps 712 mmHg 31%
    09:00 +36°C° 0 mm 2 mps 712 mmHg 30%
    10:00 +37°C° 0 mm 2 mps 712 mmHg 28%
    11:00 +38°C° 0 mm 3 mps 712 mmHg 26%
    12:00 +39°C° 0 mm 3 mps 712 mmHg 25%
    13:00 +39°C° 0 mm 3 mps 711 mmHg 24%
    14:00 +40°C° 0 mm 3 mps 711 mmHg 23%
    15:00 +39°C° 0.2 mm 3 mps 710 mmHg 27%
    16:00 +38°C° 0.2 mm 4 mps 710 mmHg 30%
    17:00 +37°C° 0.2 mm 5 mps 710 mmHg 33%
    18:00 +37°C° 0 mm 4 mps 711 mmHg 35%
    19:00 +36°C° 0 mm 3 mps 711 mmHg 36%
    20:00 +35°C° 0 mm 2 mps 712 mmHg 37%
    21:00 +35°C° 0 mm 3 mps 713 mmHg 38%
    22:00 +34°C° 0 mm 3 mps 715 mmHg 39%
    23:00 +34°C° 0 mm 4 mps 716 mmHg 40%

    Day after tomorrow, 27 January, Monday

    Time Temperature Precipitation Wind Pressure Humidity
    00:00 +33°C° 0.5 mm 4 mps 715 mmHg 45%
    01:00 +31°C° 0.5 mm 3 mps 715 mmHg 50%
    02:00 +29°C° 0.5 mm 3 mps 715 mmHg 55%
    03:00 +29°C° 0.2 mm 3 mps 715 mmHg 53%
    04:00 +29°C° 0.2 mm 2 mps 715 mmHg 52%
    05:00 +29°C° 0.2 mm 2 mps 715 mmHg 51%
    06:00 +30°C° 0.1 mm 2 mps 715 mmHg 49%
    07:00 +30°C° 0.1 mm 2 mps 715 mmHg 48%
    08:00 +30°C° 0.1 mm 2 mps 715 mmHg 47%
    09:00 +30°C° 1 mm 2 mps 715 mmHg 49%
    10:00 +30°C° 1 mm 2 mps 715 mmHg 51%
    11:00 +29°C° 1 mm 2 mps 715 mmHg 53%
    12:00 +29°C° 0.6 mm 2 mps 715 mmHg 53%
    13:00 +29°C° 0.6 mm 2 mps 714 mmHg 52%
    14:00 +29°C° 0.6 mm 3 mps 714 mmHg 51%
    15:00 +30°C° 0 mm 3 mps 713 mmHg 50%
    16:00 +30°C° 0 mm 3 mps 713 mmHg 49%
    17:00 +32°C° 0 mm 4 mps 712 mmHg 49%
    18:00 +30°C° 0 mm 3 mps 713 mmHg 53%
    19:00 +28°C° 0 mm 2 mps 713 mmHg 58%
    20:00 +27°C° 0 mm 2 mps 713 mmHg 62%
    21:00 +27°C° 0.1 mm 2 mps 713 mmHg 61%
    22:00 +27°C° 0.1 mm 2 mps 713 mmHg 60%
    23:00 +27°C° 0.1 mm 2 mps 714 mmHg 59%

    28 January, Tuesday

    Time Temperature Precipitation Wind Pressure Humidity
    00:00 +27°C° 0 mm 1 mps 713 mmHg 61%
    01:00 +27°C° 0 mm 1 mps 712 mmHg 62%
    02:00 +24°C° 0 mm 0 mps 712 mmHg 64%
    03:00 +24°C° 0 mm 0 mps 712 mmHg 65%
    04:00 +23°C° 0 mm 0 mps 712 mmHg 66%
    05:00 +23°C° 0 mm 0 mps 711 mmHg 67%
    06:00 +26°C° 0 mm 1 mps 712 mmHg 63%
    07:00 +27°C° 0 mm 1 mps 712 mmHg 58%
    08:00 +28°C° 0 mm 1 mps 712 mmHg 53%
    09:00 +30°C° 0 mm 1 mps 711 mmHg 49%
    10:00 +31°C° 0 mm 1 mps 711 mmHg 45%
    11:00 +34°C° 0 mm 2 mps 711 mmHg 41%
    12:00 +35°C° 0 mm 2 mps 710 mmHg 38%
    13:00 +36°C° 0 mm 2 mps 710 mmHg 35%
    14:00 +37°C° 0 mm 2 mps 709 mmHg 32%
    15:00 +38°C° 0 mm 2 mps 708 mmHg 31%
    16:00 +38°C° 0 mm 3 mps 708 mmHg 30%
    17:00 +38°C° 0 mm 3 mps 707 mmHg 29%
    18:00 +37°C° 0.1 mm 3 mps 707 mmHg 32%
    19:00 +35°C° 0.1 mm 4 mps 707 mmHg 36%
    20:00 +34°C° 0.1 mm 4 mps 707 mmHg 40%
    21:00 +33°C° 0 mm 3 mps 708 mmHg 42%
    22:00 +32°C° 0 mm 2 mps 708 mmHg 45%
    23:00 +31°C° 0 mm 2 mps 708 mmHg 48%

    29 January, Wednesday

    Time Temperature Precipitation Wind Pressure Humidity
    00:00 +30°C° 0 mm 2 mps 708 mmHg 51%
    01:00 +29°C° 0 mm 2 mps 707 mmHg 55%
    02:00 +28°C° 0 mm 2 mps 707 mmHg 58%
    03:00 +27°C° 0 mm 3 mps 708 mmHg 62%
    04:00 +26°C° 0 mm 4 mps 709 mmHg 65%
    05:00 +24°C° 0 mm 6 mps 709 mmHg 68%
    06:00 +25°C° 2 mm 5 mps 710 mmHg 72%
    07:00 +23°C° 2 mm 5 mps 711 mmHg 77%
    08:00 +23°C° 2 mm 4 mps 712 mmHg 81%
    09:00 +23°C° 1 mm 4 mps 712 mmHg 79%
    10:00 +25°C° 1 mm 3 mps 713 mmHg 78%
    11:00 +25°C° 1 mm 2 mps 713 mmHg 76%
    12:00 +26°C° 0.7 mm 2 mps 713 mmHg 70%
    13:00 +28°C° 0.7 mm 2 mps 712 mmHg 65%
    14:00 +29°C° 0.7 mm 2 mps 712 mmHg 59%
    15:00 +29°C° 0.1 mm 2 mps 712 mmHg 56%
    16:00 +30°C° 0.1 mm 2 mps 712 mmHg 53%
    17:00 +30°C° 0.1 mm 2 mps 711 mmHg 50%
    18:00 +30°C° 0 mm 2 mps 712 mmHg 52%
    19:00 +29°C° 0 mm 1 mps 712 mmHg 54%
    20:00 +29°C° 0 mm 1 mps 713 mmHg 56%
    21:00 +28°C° 0.6 mm 1 mps 713 mmHg 58%
    22:00 +28°C° 0.6 mm 1 mps 714 mmHg 59%
    23:00 +28°C° 0.6 mm 1 mps 714 mmHg 61%

    30 January, Thursday

    Time Temperature Precipitation Wind Pressure Humidity
    00:00 +27°C° 0.3 mm 1 mps 714 mmHg 61%
    01:00 +27°C° 0.3 mm 1 mps 714 mmHg 62%
    02:00 +25°C° 0.3 mm 0 mps 714 mmHg 63%
    03:00 +27°C° 0.4 mm 1 mps 714 mmHg 64%
    04:00 +27°C° 0.4 mm 1 mps 714 mmHg 64%
    05:00 +26°C° 0.4 mm 1 mps 714 mmHg 65%
    06:00 +27°C° 0.5 mm 1 mps 714 mmHg 63%
    07:00 +27°C° 0.5 mm 1 mps 714 mmHg 61%
    08:00 +28°C° 0.5 mm 1 mps 715 mmHg 59%
    09:00 +29°C° 0.7 mm 2 mps 715 mmHg 54%
    10:00 +30°C° 0.7 mm 2 mps 715 mmHg 49%
    11:00 +31°C° 0.7 mm 2 mps 715 mmHg 43%
    12:00 +33°C° 0.3 mm 3 mps 714 mmHg 41%
    13:00 +34°C° 0.3 mm 3 mps 713 mmHg 39%
    14:00 +34°C° 0.3 mm 3 mps 712 mmHg 36%
    15:00 +34°C° 0.2 mm 3 mps 712 mmHg 36%
    16:00 +35°C° 0.2 mm 3 mps 711 mmHg 35%
    17:00 +35°C° 0.2 mm 3 mps 711 mmHg 34%
    18:00 +34°C° 0 mm 3 mps 711 mmHg 36%
    19:00 +32°C° 0 mm 2 mps 711 mmHg 38%
    20:00 +31°C° 0 mm 2 mps 712 mmHg 40%
    21:00 +31°C° 0 mm 2 mps 712 mmHg 42%
    22:00 +30°C° 0 mm 2 mps 712 mmHg 44%
    23:00 +29°C° 0 mm 2 mps 713 mmHg 46%
    Show more